Weather in Ust-Buren

Russia / Tyva Republic     51°24′54″N   95°39′12″E
temp.,
°C
wind,
m/s
gust,
m/s
humid.,
%
clouds,
%
prec.,
mm/h
press.,
hPa
HPBL,
m
5 march, fri
fri501:00−15e22840 0.0 103520
04:00−16e22860 0.0 103523
07:00−18e22888 0.0 103427
10:00−11ese238017 0.0 1030239
13:00−5sse227126 0.0 1027416
16:00−3ese1274100 0.0 1024421
19:00−7nnw0089100 0.0 102721
22:00−11w1198100 0.0 103021
6 march, sat
sat601:00−13nnw0095100 0.0 103421
04:00−14ene119296 0.0 103620
07:00−15ene229071 0.0 103720
10:00−7se128313 0.0 1034286
13:00−3ssw128043 0.0 1030534
16:00−1sw117952 0.0 1026414
19:00−8ne119227 0.0 102821
22:00−11e11900 0.0 102821
7 march, sun
sun701:00−12e12902 0.0 102821
04:00−13e12901 0.0 102720
07:00−14e128710 0.0 102820
10:00−7sse117872 0.0 1026234
13:00−3wsw117884 0.0 1025370
16:00−3w118192 0.0 1023297
19:00−8nne119295 0.0 102621
22:00−10e0089100 0.0 102821
8 march, mon
mon801:00−12e118979 0.0 103021
04:00−13e11882 0.0 103021
07:00−13e128842 0.0 103221
10:00−5sse128482 0.0 1029246
13:00−1ssw128842 0.0 1026404
16:000wsw11870 0.0 1023278
19:00−7nne11940 0.0 102521
22:00−9e11880 0.0 102621
9 march, tue
tue901:00−10e118812 0.0 102621
04:00−11se009195 0.0 102721
07:00−11sse119596 0.0 103021
10:00−7wsw1191100 0.0 1030243
13:00−3w118796 0.0 1029393
16:00−2wsw11833 0.0 1027393
19:00−8ne11962 0.0 103021
22:00−9ene12880 0.0 103121